Adama, Poland

10:02 PM CET on November 23, 2017 (GMT +0100)
Adama

Weather History for 12566 - December, 2013

Change the Weather History Date:

Tuesday, December 31, 2013

  Actual Average Record
Temperature  
Mean Temperature 29 °F -  
Max Temperature 32 °F 32 °F - ()
Min Temperature 26 °F 20 °F - ()
Degree Days  
Heating Degree Days 36    
Moisture  
Dew Point 30 °F    
Average Humidity 99    
Maximum Humidity 100    
Minimum Humidity 75    
Precipitation  
Precipitation 0.01 in 0.04 in - ()
Sea Level Pressure  
Sea Level Pressure 30.28 in    
Wind  
Wind Speed 5 mph ()    
Max Wind Speed 9 mph    
Max Gust Speed -    
Visibility 0.9 miles    
Events Fog , Rain    
T = Trace of Precipitation, MM = Missing Value Source: Averaged Metar Reports

Daily Weather History Graph

Daily Weather History Graph

Search for Another Location

Airport or City:

Trip Planner

Search our weather history database for the weather conditions in past years. The results will help you decide how hot, cold, wet, or windy it might be!

Date:

Astronomy

Dec. 31, 2013 Rise Set
Actual Time 7:39 AM CET 3:48 PM CET
Civil Twilight 7:01 AM CET 4:26 PM CET
Nautical Twilight 6:19 AM CET 5:07 PM CET
Astronomical Twilight 5:40 AM CET 5:47 PM CET
Moon 6:09 AM CET (12/31) 3:08 PM CET (12/31)
Length of Visible Light 9h 25m
Length of Day
8h 08m
Waning Crescent, 2% of the Moon is Illuminated
Dec 31
Waning Crescent
Jan 1
New
Jan 8
First Quarter
Jan 16
Full
Jan 24
Last Quarter

Hourly Weather History & Observations

Time (CET) Temp. Windchill Dew Point Humidity Pressure Visibility Wind Dir Wind Speed Gust Speed Precip Events Conditions
12:00 AM 27 °F - 27 °F 100% 30.44 in 2 mi NE 6.7 mph - -   Mist
12:00 AM 26.6 °F 21.2 °F 26.6 °F 100% 30.36 in 1.9 mi ENE 4.6 mph - N/A   Mist
12:30 AM 26.6 °F 20.0 °F 26.6 °F 100% 30.36 in 1.9 mi NE 5.8 mph - N/A   Mist
1:00 AM 27 °F - 27 °F 100% 30.42 in 2 mi NE 6.7 mph - -   Mist
1:00 AM 28.4 °F 21.2 °F 28.4 °F 100% 30.36 in 1.9 mi ENE 6.9 mph - N/A   Mist
1:30 AM 28.4 °F 21.2 °F 28.4 °F 100% 30.36 in 1.9 mi NE 6.9 mph - N/A   Mist
2:00 AM 28 °F - 28 °F 97% 30.42 in 2 mi NE 6.7 mph - -   Mist
2:00 AM 26.6 °F 20.0 °F 26.6 °F 100% 30.36 in 1.9 mi NE 5.8 mph - N/A   Mist
2:30 AM 26.6 °F 20.0 °F 26.6 °F 100% 30.33 in 1.9 mi NE 5.8 mph - N/A   Mist
3:00 AM 29 °F - 29 °F 100% 30.41 in 2 mi NE 4.5 mph - -   Mist
3:00 AM 28.4 °F 24.6 °F 28.4 °F 100% 30.33 in 1.9 mi NE 3.5 mph - N/A   Mist
3:30 AM 26.6 °F 21.2 °F 26.6 °F 100% 30.33 in 1.9 mi NE 4.6 mph - N/A   Mist
4:00 AM 28 °F - 28 °F 99% 30.40 in 2 mi NE 4.5 mph - -   Mist
4:00 AM 26.6 °F 21.2 °F 26.6 °F 100% 30.33 in 1.9 mi ENE 4.6 mph - N/A   Mist
4:30 AM 28.4 °F 24.6 °F 28.4 °F 100% 30.33 in 1.6 mi East 3.5 mph - N/A   Mist
5:00 AM 28 °F - 28 °F 100% 30.38 in 1 mi NE 4.5 mph - -   Mist
5:00 AM 28.4 °F 24.6 °F 28.4 °F 100% 30.33 in 1.2 mi NE 3.5 mph - N/A   Mist
5:30 AM 28.4 °F 22.2 °F 28.4 °F 100% 30.30 in 1.6 mi ENE 5.8 mph - N/A   Mist
6:00 AM 28 °F - 28 °F 100% 30.38 in 2 mi NE 8.9 mph - -   Mist
6:00 AM 28.4 °F 22.2 °F 28.4 °F 100% 30.30 in 1.6 mi NE 5.8 mph - N/A   Scattered Clouds
6:30 AM 30.2 °F 23.4 °F 30.2 °F 100% 30.30 in 1.6 mi ENE 6.9 mph - N/A   Mostly Cloudy
7:00 AM 31 °F - 31 °F 97% 30.37 in 0 mi NE 6.7 mph - - Fog Partial Fog
7:00 AM 30.2 °F 23.4 °F 30.2 °F 100% 30.30 in 0.5 mi ENE 6.9 mph - N/A Fog Light Freezing Fog
7:30 AM 30.2 °F 24.3 °F 30.2 °F 100% 30.30 in 0.4 mi NE 5.8 mph - N/A Fog Light Freezing Fog
8:00 AM 31 °F - 31 °F 100% 30.36 in 0 mi NE 6.7 mph - - Fog Partial Fog
8:00 AM 30.2 °F 24.3 °F 30.2 °F 100% 30.30 in 0.2 mi ENE 5.8 mph - N/A Fog Light Freezing Fog
8:30 AM 32.0 °F 25.6 °F 32.0 °F 100% 30.30 in 0.2 mi ENE 6.9 mph - N/A Fog Light Freezing Fog
9:00 AM 31 °F - 31 °F 100% 30.35 in 0 mi NE 6.7 mph - - Fog Partial Fog
9:00 AM 32.0 °F 27.5 °F 32.0 °F 100% 30.30 in 0.2 mi ENE 4.6 mph - N/A Fog Light Freezing Fog
9:30 AM 32.0 °F 27.5 °F 32.0 °F 100% 30.30 in 0.2 mi East 4.6 mph - N/A Fog Light Freezing Fog
10:00 AM 31 °F - 31 °F 100% 30.35 in 0 mi NE 6.7 mph - - Fog Partial Fog
10:00 AM 32.0 °F 26.4 °F 32.0 °F 100% 30.30 in 0.2 mi NE 5.8 mph - N/A Fog Light Freezing Fog
10:30 AM 32.0 °F 26.4 °F 32.0 °F 100% 30.30 in 0.2 mi ENE 5.8 mph - N/A Fog Light Freezing Fog
11:00 AM 31 °F - 31 °F 100% 30.35 in 0 mi NE 6.7 mph - - Fog Partial Fog
11:00 AM 32.0 °F 26.4 °F 32.0 °F 100% 30.27 in 0.2 mi ENE 5.8 mph - N/A Fog Light Freezing Fog
11:30 AM 32.0 °F 26.4 °F 32.0 °F 100% 30.27 in 0.2 mi ENE 5.8 mph - N/A Fog Light Freezing Fog
12:00 PM 31 °F - 31 °F 100% 30.32 in 0 mi NE 6.7 mph - - Fog Partial Fog
12:00 PM 32.0 °F 27.5 °F 32.0 °F 100% 30.27 in 0.2 mi NE 4.6 mph - N/A Fog Light Freezing Fog
12:30 PM 32.0 °F 26.4 °F 32.0 °F 100% 30.24 in 0.3 mi NE 5.8 mph - N/A Fog Light Freezing Fog
1:00 PM 32 °F - 32 °F 98% 30.31 in 0 mi NE 6.7 mph - - Fog Partial Fog
1:00 PM 32.0 °F 27.5 °F 32.0 °F 100% 30.24 in 0.5 mi ENE 4.6 mph - N/A Fog Light Freezing Fog
1:30 PM 32.0 °F 25.6 °F 32.0 °F 100% 30.24 in 0.9 mi NE 6.9 mph - N/A   Overcast
2:00 PM 32 °F - 32 °F 98% 30.30 in 1 mi NE 4.5 mph - - Fog Light Fog
2:00 PM 32.0 °F 27.5 °F 32.0 °F 100% 30.24 in 1.0 mi NE 4.6 mph - N/A   Overcast
2:30 PM 32.0 °F 26.4 °F 32.0 °F 100% 30.24 in 0.9 mi ENE 5.8 mph - N/A Rain Light Rain
3:00 PM 32 °F - 32 °F 100% 30.29 in 1 mi NNE 6.7 mph - - Rain Light Rain
3:00 PM 32.0 °F 25.6 °F 32.0 °F 100% 30.21 in 1.1 mi NE 6.9 mph - N/A Rain Light Rain
3:30 PM 32.0 °F 27.5 °F 32.0 °F 100% 30.21 in 1.1 mi East 4.6 mph - N/A   Mostly Cloudy
4:00 PM 32 °F - 32 °F 98% 30.28 in 1 mi ENE 6.7 mph - - Rain Light Rain
4:00 PM 32.0 °F 27.5 °F 32.0 °F 100% 30.21 in 1.1 mi ENE 4.6 mph - N/A   Mostly Cloudy
4:30 PM 32.0 °F 26.4 °F 32.0 °F 100% 30.21 in 1.1 mi ENE 5.8 mph - N/A   Mostly Cloudy
5:00 PM 31 °F - 31 °F 100% 30.27 in 1 mi NE 6.7 mph - - Rain Light Freezing Rain
5:00 PM 32.0 °F 26.4 °F 32.0 °F 100% 30.21 in 1.2 mi ENE 5.8 mph - N/A Rain Light Rain
5:30 PM 32.0 °F 26.4 °F 32.0 °F 100% 30.21 in 1.2 mi ENE 5.8 mph - N/A Rain Light Rain
6:00 PM 31 °F - 31 °F 100% 30.27 in 1 mi NE 6.7 mph - - Rain Light Freezing Rain
6:00 PM 32.0 °F 25.6 °F 32.0 °F 100% 30.21 in 1.2 mi ENE 6.9 mph - N/A Rain Light Rain
6:30 PM 32.0 °F 27.5 °F 24.8 °F 75% 30.21 in 1.2 mi NE 4.6 mph - N/A Rain Light Rain
7:00 PM 32 °F - 32 °F 98% 30.26 in 1 mi NE 6.7 mph - - Rain Light Rain
7:00 PM 32.0 °F 27.5 °F 32.0 °F 100% 30.18 in 1.2 mi ENE 4.6 mph - N/A   Mostly Cloudy
7:30 PM 32.0 °F 27.5 °F 32.0 °F 100% 30.18 in 1.2 mi NE 4.6 mph - N/A   Overcast
8:00 PM 32 °F - 32 °F 99% 30.26 in 1 mi NE 4.5 mph - -   Mist
8:00 PM 32.0 °F 28.7 °F 32.0 °F 100% 30.18 in 1.1 mi NE 3.5 mph - N/A   Overcast
8:30 PM 32.0 °F 27.5 °F 32.0 °F 100% 30.18 in 1.1 mi ENE 4.6 mph - N/A   Overcast
9:00 PM 32 °F - 32 °F 100% 30.24 in 1 mi NE 6.7 mph - -   Mist
9:00 PM 32.0 °F 26.4 °F 32.0 °F 100% 30.18 in 1.0 mi NE 5.8 mph - N/A   Overcast
9:30 PM 32.0 °F 26.4 °F 32.0 °F 100% 30.18 in 0.5 mi ENE 5.8 mph - N/A Fog Light Freezing Fog
10:00 PM 32 °F - 32 °F 100% 30.22 in 0 mi NE 8.9 mph - - Fog Partial Fog
10:00 PM 32.0 °F 26.4 °F 32.0 °F 100% 30.15 in 0.3 mi NE 5.8 mph - N/A Fog Light Freezing Fog
10:30 PM 32.0 °F 27.5 °F 32.0 °F 100% 30.15 in 0.2 mi ENE 4.6 mph - N/A Fog Light Freezing Fog
11:00 PM 32 °F - 32 °F 100% 30.22 in 0 mi ENE 4.5 mph - - Fog Partial Fog
11:00 PM 32.0 °F 28.7 °F 32.0 °F 100% 30.15 in 0.2 mi ENE 3.5 mph - N/A Fog Light Freezing Fog
11:30 PM 32.0 °F 27.5 °F 32.0 °F 100% 30.15 in 0.2 mi ENE 4.6 mph - N/A Fog Light Freezing Fog